Time,TemperatureF,DewpointF,PressureIn,WindDirection,WindDirectionDegrees,WindSpeedMPH,WindSpeedGustMPH,Humidity,HourlyPrecipIn,Conditions,Clouds,dailyrainin,SoftwareType,DateUTC
2013-02-19 00:01:00,18.0,5.0,-100.00,SW,236,4.0,7.0,56,-99.99,,,-99.99,,2013-02-19 07:01:00,
2013-02-19 00:11:00,18.0,5.0,-100.00,SW,234,4.0,7.0,55,-99.99,,,-99.99,,2013-02-19 07:11:00,
2013-02-19 00:21:00,18.0,5.0,-100.00,SW,234,4.0,7.0,55,-99.99,,,-99.99,,2013-02-19 07:21:00,
2013-02-19 00:32:00,18.0,5.0,-100.00,SW,234,4.0,7.0,55,-99.99,,,-99.99,,2013-02-19 07:32:00,
2013-02-19 00:42:00,17.0,4.0,-100.00,WSW,251,4.0,7.0,56,-99.99,,,-99.99,,2013-02-19 07:42:00,
2013-02-19 00:52:00,17.0,4.0,-100.00,WSW,251,4.0,7.0,56,-99.99,,,-99.99,,2013-02-19 07:52:00,
2013-02-19 01:01:00,17.0,5.0,-100.00,WSW,243,3.0,7.0,57,-99.99,,,-99.99,,2013-02-19 08:01:00,
2013-02-19 01:11:00,18.0,5.0,-100.00,SW,227,4.0,8.0,56,-99.99,,,-99.99,,2013-02-19 08:11:00,
2013-02-19 01:21:00,18.0,5.0,-100.00,SW,227,4.0,8.0,56,-99.99,,,-99.99,,2013-02-19 08:21:00,
2013-02-19 01:31:00,18.0,5.0,-100.00,SW,227,4.0,8.0,56,-99.99,,,-99.99,,2013-02-19 08:31:00,
2013-02-19 01:42:00,17.0,5.0,-100.00,WSW,241,4.0,7.0,56,-99.99,,,-99.99,,2013-02-19 08:42:00,
2013-02-19 01:52:00,17.0,5.0,-100.00,WSW,241,4.0,7.0,56,-99.99,,,-99.99,,2013-02-19 08:52:00,
2013-02-19 02:01:00,17.0,5.0,-100.00,WSW,240,4.0,6.0,58,-99.99,,,-99.99,,2013-02-19 09:01:00,
2013-02-19 02:11:00,16.0,4.0,-100.00,WSW,244,4.0,7.0,59,-99.99,,,-99.99,,2013-02-19 09:11:00,
2013-02-19 02:21:00,16.0,4.0,-100.00,WSW,244,4.0,7.0,59,-99.99,,,-99.99,,2013-02-19 09:21:00,
2013-02-19 02:31:00,16.0,4.0,-100.00,WSW,244,4.0,7.0,59,-99.99,,,-99.99,,2013-02-19 09:31:00,
2013-02-19 02:41:00,17.0,5.0,-100.00,WSW,242,5.0,7.0,58,-99.99,,,-99.99,,2013-02-19 09:41:00,
2013-02-19 02:53:00,17.0,5.0,-100.00,WSW,242,5.0,7.0,58,-99.99,,,-99.99,,2013-02-19 09:53:00,
2013-02-19 03:01:00,17.0,5.0,-100.00,WSW,243,5.0,8.0,58,-99.99,,,-99.99,,2013-02-19 10:01:00,
2013-02-19 03:11:00,17.0,5.0,-100.00,WSW,244,4.0,7.0,59,-99.99,,,-99.99,,2013-02-19 10:11:00,
2013-02-19 03:21:00,17.0,5.0,-100.00,WSW,244,4.0,7.0,59,-99.99,,,-99.99,,2013-02-19 10:21:00,
2013-02-19 03:31:00,17.0,5.0,-100.00,WSW,244,4.0,7.0,59,-99.99,,,-99.99,,2013-02-19 10:31:00,
2013-02-19 03:41:00,18.0,5.0,-100.00,SW,235,3.0,6.0,55,-99.99,,,-99.99,,2013-02-19 10:41:00,
2013-02-19 03:52:00,18.0,5.0,-100.00,SW,235,3.0,6.0,55,-99.99,,,-99.99,,2013-02-19 10:52:00,
2013-02-19 04:01:00,18.0,5.0,-100.00,SSW,210,4.0,6.0,55,-99.99,,,-99.99,,2013-02-19 11:01:00,
2013-02-19 04:11:00,19.0,5.0,-100.00,SSW,205,3.0,7.0,53,-99.99,,,-99.99,,2013-02-19 11:11:00,
2013-02-19 04:21:00,19.0,5.0,-100.00,SSW,205,3.0,7.0,53,-99.99,,,-99.99,,2013-02-19 11:21:00,
2013-02-19 04:31:00,19.0,5.0,-100.00,SSW,205,3.0,7.0,53,-99.99,,,-99.99,,2013-02-19 11:31:00,
2013-02-19 04:42:00,17.0,6.0,-100.00,SW,234,4.0,11.0,59,-99.99,,,-99.99,,2013-02-19 11:42:00,
2013-02-19 04:52:00,17.0,6.0,-100.00,SW,234,4.0,11.0,59,-99.99,,,-99.99,,2013-02-19 11:52:00,
2013-02-19 05:01:00,17.0,5.0,-100.00,WSW,248,6.0,10.0,59,-99.99,,,-99.99,,2013-02-19 12:01:00,
2013-02-19 05:12:00,17.0,5.0,-100.00,WSW,251,6.0,9.0,58,-99.99,,,-99.99,,2013-02-19 12:12:00,
2013-02-19 05:21:00,17.0,5.0,-100.00,WSW,251,6.0,9.0,58,-99.99,,,-99.99,,2013-02-19 12:21:00,
2013-02-19 05:32:00,17.0,5.0,-100.00,WSW,251,6.0,9.0,58,-99.99,,,-99.99,,2013-02-19 12:32:00,
2013-02-19 05:42:00,18.0,6.0,-100.00,WSW,255,6.0,10.0,58,-99.99,,,-99.99,,2013-02-19 12:42:00,
2013-02-19 05:52:00,18.0,6.0,-100.00,WSW,255,6.0,10.0,58,-99.99,,,-99.99,,2013-02-19 12:52:00,
2013-02-19 06:02:00,18.0,6.0,-100.00,WSW,249,5.0,9.0,59,-99.99,,,-99.99,,2013-02-19 13:02:00,
2013-02-19 06:11:00,19.0,7.0,-100.00,WSW,242,4.0,8.0,58,-99.99,,,-99.99,,2013-02-19 13:11:00,
2013-02-19 06:22:00,19.0,7.0,-100.00,WSW,242,4.0,8.0,58,-99.99,,,-99.99,,2013-02-19 13:22:00,
2013-02-19 06:31:00,19.0,7.0,-100.00,WSW,242,4.0,8.0,58,-99.99,,,-99.99,,2013-02-19 13:31:00,
2013-02-19 06:41:00,19.0,7.0,-100.00,WSW,245,4.0,7.0,57,-99.99,,,-99.99,,2013-02-19 13:41:00,
2013-02-19 06:52:00,19.0,7.0,-100.00,WSW,245,4.0,7.0,57,-99.99,,,-99.99,,2013-02-19 13:52:00,
2013-02-19 07:01:00,19.0,7.0,-100.00,WSW,252,3.0,7.0,59,-99.99,,,-99.99,,2013-02-19 14:01:00,
2013-02-19 07:11:00,19.0,7.0,-100.00,West,260,3.0,6.0,57,-99.99,,,-99.99,,2013-02-19 14:11:00,
2013-02-19 07:21:00,19.0,7.0,-100.00,West,260,3.0,6.0,57,-99.99,,,-99.99,,2013-02-19 14:21:00,
2013-02-19 07:32:00,19.0,7.0,-100.00,West,260,3.0,6.0,57,-99.99,,,-99.99,,2013-02-19 14:32:00,
2013-02-19 07:41:00,19.0,7.0,-100.00,WSW,240,3.0,5.0,58,-99.99,,,-99.99,,2013-02-19 14:41:00,
2013-02-19 07:52:00,19.0,7.0,-100.00,WSW,240,3.0,5.0,58,-99.99,,,-99.99,,2013-02-19 14:52:00,
2013-02-19 08:01:00,20.0,6.0,-100.00,West,262,3.0,6.0,55,-99.99,,,-99.99,,2013-02-19 15:01:00,
2013-02-19 08:11:00,20.0,7.0,-100.00,WSW,251,4.0,7.0,54,-99.99,,,-99.99,,2013-02-19 15:11:00,
2013-02-19 08:21:00,20.0,7.0,-100.00,WSW,251,4.0,7.0,54,-99.99,,,-99.99,,2013-02-19 15:21:00,
2013-02-19 08:31:00,20.0,7.0,-100.00,WSW,251,4.0,7.0,54,-99.99,,,-99.99,,2013-02-19 15:31:00,
2013-02-19 08:42:00,25.0,6.0,-100.00,WNW,293,3.0,6.0,44,-99.99,,,-99.99,,2013-02-19 15:42:00,
2013-02-19 08:52:00,25.0,6.0,-100.00,WNW,293,3.0,6.0,44,-99.99,,,-99.99,,2013-02-19 15:52:00,
2013-02-19 09:01:00,28.0,5.0,-100.00,NE,54,4.0,10.0,36,-99.99,,,-99.99,,2013-02-19 16:01:00,
2013-02-19 09:11:00,29.0,5.0,-100.00,SE,143,3.0,10.0,34,-99.99,,,-99.99,,2013-02-19 16:11:00,
2013-02-19 09:21:00,29.0,5.0,-100.00,SE,143,3.0,10.0,34,-99.99,,,-99.99,,2013-02-19 16:21:00,
2013-02-19 09:31:00,29.0,5.0,-100.00,SE,143,3.0,10.0,34,-99.99,,,-99.99,,2013-02-19 16:31:00,
2013-02-19 09:41:00,31.0,6.0,-100.00,SE,139,11.0,21.0,34,-99.99,,,-99.99,,2013-02-19 16:41:00,
2013-02-19 09:52:00,31.0,6.0,-100.00,SE,139,11.0,21.0,34,-99.99,,,-99.99,,2013-02-19 16:52:00,
2013-02-19 10:01:00,33.0,7.0,-100.00,SE,134,10.0,17.0,33,-99.99,,,-99.99,,2013-02-19 17:01:00,
2013-02-19 10:11:00,33.0,8.0,-100.00,SE,126,10.0,17.0,33,-99.99,,,-99.99,,2013-02-19 17:11:00,
2013-02-19 10:21:00,33.0,8.0,-100.00,SE,126,10.0,17.0,33,-99.99,,,-99.99,,2013-02-19 17:21:00,
2013-02-19 10:31:00,33.0,8.0,-100.00,SE,126,10.0,17.0,33,-99.99,,,-99.99,,2013-02-19 17:31:00,
2013-02-19 10:41:00,35.0,8.0,-100.00,SE,136,12.0,21.0,32,-99.99,,,-99.99,,2013-02-19 17:41:00,
2013-02-19 10:52:00,35.0,8.0,-100.00,SE,136,12.0,21.0,32,-99.99,,,-99.99,,2013-02-19 17:52:00,
2013-02-19 11:01:00,35.0,8.0,-100.00,SE,144,11.0,25.0,31,-99.99,,,-99.99,,2013-02-19 18:01:00,
2013-02-19 11:11:00,35.0,8.0,-100.00,SE,143,13.0,21.0,32,-99.99,,,-99.99,,2013-02-19 18:11:00,
2013-02-19 11:21:00,35.0,8.0,-100.00,SE,143,13.0,21.0,32,-99.99,,,-99.99,,2013-02-19 18:21:00,
2013-02-19 11:31:00,35.0,8.0,-100.00,SE,143,13.0,21.0,32,-99.99,,,-99.99,,2013-02-19 18:31:00,
2013-02-19 11:41:00,37.0,9.0,-100.00,SE,144,13.0,23.0,31,-99.99,,,-99.99,,2013-02-19 18:41:00,
2013-02-19 11:52:00,37.0,9.0,-100.00,SE,144,13.0,23.0,31,-99.99,,,-99.99,,2013-02-19 18:52:00,
2013-02-19 12:01:00,38.0,10.0,-100.00,SE,137,11.0,19.0,31,-99.99,,,-99.99,,2013-02-19 19:01:00,
2013-02-19 12:11:00,37.0,10.0,-100.00,SE,127,12.0,22.0,31,-99.99,,,-99.99,,2013-02-19 19:11:00,
2013-02-19 12:21:00,37.0,10.0,-100.00,SE,127,12.0,22.0,31,-99.99,,,-99.99,,2013-02-19 19:21:00,
2013-02-19 12:31:00,37.0,10.0,-100.00,SE,127,12.0,22.0,31,-99.99,,,-99.99,,2013-02-19 19:31:00,
2013-02-19 12:41:00,38.0,10.0,-100.00,ESE,123,9.0,20.0,30,-99.99,,,-99.99,,2013-02-19 19:41:00,
2013-02-19 12:52:00,38.0,10.0,-100.00,ESE,123,9.0,20.0,30,-99.99,,,-99.99,,2013-02-19 19:52:00,
2013-02-19 13:01:00,39.0,11.0,-100.00,SE,141,9.0,17.0,30,-99.99,,,-99.99,,2013-02-19 20:01:00,
2013-02-19 13:11:00,40.0,11.0,-100.00,ESE,111,6.0,13.0,29,-99.99,,,-99.99,,2013-02-19 20:11:00,
2013-02-19 13:21:00,40.0,11.0,-100.00,ESE,111,6.0,13.0,29,-99.99,,,-99.99,,2013-02-19 20:21:00,
2013-02-19 13:31:00,40.0,11.0,-100.00,ESE,111,6.0,13.0,29,-99.99,,,-99.99,,2013-02-19 20:31:00,
2013-02-19 13:41:00,40.0,11.0,-100.00,ESE,122,10.0,20.0,30,-99.99,,,-99.99,,2013-02-19 20:41:00,
2013-02-19 13:52:00,40.0,11.0,-100.00,ESE,122,10.0,20.0,30,-99.99,,,-99.99,,2013-02-19 20:52:00,
2013-02-19 14:01:00,40.0,12.0,-100.00,SE,125,10.0,18.0,30,-99.99,,,-99.99,,2013-02-19 21:01:00,
2013-02-19 14:11:00,41.0,12.0,-100.00,SE,135,8.0,18.0,30,-99.99,,,-99.99,,2013-02-19 21:11:00,
2013-02-19 14:21:00,41.0,12.0,-100.00,SE,135,8.0,18.0,30,-99.99,,,-99.99,,2013-02-19 21:21:00,
2013-02-19 14:31:00,41.0,12.0,-100.00,SE,135,8.0,18.0,30,-99.99,,,-99.99,,2013-02-19 21:31:00,
2013-02-19 14:42:00,41.0,12.0,-100.00,ESE,113,9.0,17.0,30,-99.99,,,-99.99,,2013-02-19 21:42:00,
2013-02-19 14:52:00,41.0,12.0,-100.00,ESE,113,9.0,17.0,30,-99.99,,,-99.99,,2013-02-19 21:52:00,
2013-02-19 15:01:00,41.0,12.0,-100.00,SE,128,8.0,13.0,30,-99.99,,,-99.99,,2013-02-19 22:01:00,
2013-02-19 15:11:00,41.0,12.0,-100.00,SE,131,7.0,14.0,30,-99.99,,,-99.99,,2013-02-19 22:11:00,
2013-02-19 15:21:00,41.0,12.0,-100.00,SE,131,7.0,14.0,30,-99.99,,,-99.99,,2013-02-19 22:21:00,
2013-02-19 15:31:00,41.0,12.0,-100.00,SE,131,7.0,14.0,30,-99.99,,,-99.99,,2013-02-19 22:31:00,
2013-02-19 15:41:00,41.0,12.0,-100.00,SE,141,7.0,13.0,29,-99.99,,,-99.99,,2013-02-19 22:41:00,
2013-02-19 15:52:00,41.0,12.0,-100.00,SE,141,7.0,13.0,29,-99.99,,,-99.99,,2013-02-19 22:52:00,
2013-02-19 16:01:00,41.0,12.0,-100.00,SE,143,6.0,12.0,29,-99.99,,,-99.99,,2013-02-19 23:01:00,
2013-02-19 16:11:00,41.0,12.0,-100.00,SE,144,7.0,12.0,29,-99.99,,,-99.99,,2013-02-19 23:11:00,
2013-02-19 16:21:00,41.0,12.0,-100.00,SE,144,7.0,12.0,29,-99.99,,,-99.99,,2013-02-19 23:21:00,
2013-02-19 16:31:00,41.0,12.0,-100.00,SE,144,7.0,12.0,29,-99.99,,,-99.99,,2013-02-19 23:31:00,
2013-02-19 16:41:00,40.0,11.0,-100.00,SE,134,8.0,15.0,29,-99.99,,,-99.99,,2013-02-19 23:41:00,
2013-02-19 16:52:00,40.0,11.0,-100.00,SE,134,8.0,15.0,29,-99.99,,,-99.99,,2013-02-19 23:52:00,
2013-02-19 17:01:00,40.0,11.0,-100.00,SE,142,6.0,13.0,29,-99.99,,,-99.99,,2013-02-20 00:01:00,
2013-02-19 17:11:00,40.0,11.0,-100.00,SE,136,6.0,13.0,29,-99.99,,,-99.99,,2013-02-20 00:11:00,
2013-02-19 17:21:00,40.0,11.0,-100.00,SE,136,6.0,13.0,29,-99.99,,,-99.99,,2013-02-20 00:21:00,
2013-02-19 17:31:00,40.0,11.0,-100.00,SE,136,6.0,13.0,29,-99.99,,,-99.99,,2013-02-20 00:31:00,
2013-02-19 17:41:00,39.0,13.0,-100.00,ESE,120,5.0,16.0,33,-99.99,,,-99.99,,2013-02-20 00:41:00,
2013-02-19 17:52:00,39.0,13.0,-100.00,ESE,120,5.0,16.0,33,-99.99,,,-99.99,,2013-02-20 00:52:00,
2013-02-19 18:02:00,37.0,14.0,-100.00,SE,146,5.0,9.0,37,-99.99,,,-99.99,,2013-02-20 01:02:00,
2013-02-19 18:11:00,36.0,13.0,-100.00,SE,143,5.0,9.0,38,-99.99,,,-99.99,,2013-02-20 01:11:00,
2013-02-19 18:21:00,36.0,13.0,-100.00,SE,143,5.0,9.0,38,-99.99,,,-99.99,,2013-02-20 01:21:00,
2013-02-19 18:31:00,36.0,13.0,-100.00,SE,143,5.0,9.0,38,-99.99,,,-99.99,,2013-02-20 01:31:00,
2013-02-19 18:41:00,35.0,12.0,-100.00,ESE,107,7.0,14.0,39,-99.99,,,-99.99,,2013-02-20 01:41:00,
2013-02-19 18:52:00,35.0,12.0,-100.00,ESE,107,7.0,14.0,39,-99.99,,,-99.99,,2013-02-20 01:52:00,
2013-02-19 19:01:00,34.0,12.0,-100.00,East,100,7.0,14.0,40,-99.99,,,-99.99,,2013-02-20 02:01:00,
2013-02-19 19:11:00,34.0,12.0,-100.00,East,101,8.0,15.0,40,-99.99,,,-99.99,,2013-02-20 02:11:00,
2013-02-19 19:21:00,34.0,12.0,-100.00,East,101,8.0,15.0,40,-99.99,,,-99.99,,2013-02-20 02:21:00,
2013-02-19 19:31:00,34.0,12.0,-100.00,East,101,8.0,15.0,40,-99.99,,,-99.99,,2013-02-20 02:31:00,
2013-02-19 19:41:00,33.0,12.0,-100.00,East,100,7.0,13.0,42,-99.99,,,-99.99,,2013-02-20 02:41:00,
2013-02-19 19:52:00,33.0,12.0,-100.00,East,100,7.0,13.0,42,-99.99,,,-99.99,,2013-02-20 02:52:00,
2013-02-19 20:01:00,32.0,12.0,-100.00,ESE,108,9.0,14.0,43,-99.99,,,-99.99,,2013-02-20 03:01:00,
2013-02-19 20:12:00,32.0,11.0,-100.00,East,101,10.0,15.0,41,-99.99,,,-99.99,,2013-02-20 03:12:00,
2013-02-19 20:21:00,32.0,11.0,-100.00,East,101,10.0,15.0,41,-99.99,,,-99.99,,2013-02-20 03:21:00,
2013-02-19 20:32:00,32.0,11.0,-100.00,East,101,10.0,15.0,41,-99.99,,,-99.99,,2013-02-20 03:32:00,
2013-02-19 20:41:00,31.0,12.0,-100.00,ESE,115,5.0,12.0,43,-99.99,,,-99.99,,2013-02-20 03:41:00,
2013-02-19 20:52:00,31.0,12.0,-100.00,ESE,115,5.0,12.0,43,-99.99,,,-99.99,,2013-02-20 03:52:00,
2013-02-19 21:01:00,31.0,11.0,-100.00,ESE,110,6.0,13.0,43,-99.99,,,-99.99,,2013-02-20 04:01:00,
2013-02-19 21:11:00,30.0,11.0,-100.00,East,99,6.0,10.0,43,-99.99,,,-99.99,,2013-02-20 04:11:00,
2013-02-19 21:21:00,30.0,11.0,-100.00,East,99,6.0,10.0,43,-99.99,,,-99.99,,2013-02-20 04:21:00,
2013-02-19 21:31:00,30.0,11.0,-100.00,East,99,6.0,10.0,43,-99.99,,,-99.99,,2013-02-20 04:31:00,
2013-02-19 21:41:00,30.0,11.0,-100.00,ESE,115,7.0,14.0,43,-99.99,,,-99.99,,2013-02-20 04:41:00,
2013-02-19 21:52:00,30.0,11.0,-100.00,ESE,115,7.0,14.0,43,-99.99,,,-99.99,,2013-02-20 04:52:00,
2013-02-19 22:02:00,30.0,11.0,-100.00,ESE,119,5.0,11.0,43,-99.99,,,-99.99,,2013-02-20 05:02:00,
2013-02-19 22:12:00,30.0,12.0,-100.00,SSE,156,3.0,10.0,45,-99.99,,,-99.99,,2013-02-20 05:12:00,
2013-02-19 22:22:00,30.0,12.0,-100.00,SSE,156,3.0,10.0,45,-99.99,,,-99.99,,2013-02-20 05:22:00,
2013-02-19 22:32:00,30.0,12.0,-100.00,SSE,156,3.0,10.0,45,-99.99,,,-99.99,,2013-02-20 05:32:00,
2013-02-19 22:42:00,30.0,10.0,-100.00,ESE,106,6.0,10.0,42,-99.99,,,-99.99,,2013-02-20 05:42:00,
2013-02-19 22:52:00,30.0,10.0,-100.00,ESE,106,6.0,10.0,42,-99.99,,,-99.99,,2013-02-20 05:52:00,
2013-02-19 23:01:00,30.0,10.0,-100.00,ESE,106,6.0,10.0,42,-99.99,,,-99.99,,2013-02-20 06:01:00,
2013-02-19 23:11:00,30.0,11.0,-100.00,SSE,161,6.0,10.0,44,-99.99,,,-99.99,,2013-02-20 06:11:00,
2013-02-19 23:21:00,30.0,11.0,-100.00,SSE,161,6.0,10.0,44,-99.99,,,-99.99,,2013-02-20 06:21:00,
2013-02-19 23:31:00,30.0,11.0,-100.00,SSE,161,6.0,10.0,44,-99.99,,,-99.99,,2013-02-20 06:31:00,
2013-02-19 23:42:00,27.0,12.0,-100.00,NE,42,1.0,4.0,51,-99.99,,,-99.99,,2013-02-20 06:42:00,
2013-02-19 23:52:00,27.0,12.0,-100.00,NE,42,1.0,4.0,51,-99.99,,,-99.99,,2013-02-20 06:52:00,